ProjectID,Date,Electric Generation,Electric Utility Import,Facility Electric Load
,YYYY-MM-DD,kW,kW,kW
360,2016-07-01,0.0,,0.0
360,2016-07-02,0.0,,0.0
360,2016-07-03,0.0,,0.0
360,2016-07-04,0.0,,0.0
360,2016-07-05,0.0,,0.0
360,2016-07-06,0.0,,0.0
360,2016-07-07,0.0,,0.0
360,2016-07-08,0.0,,0.0
360,2016-07-09,0.0,,0.0
360,2016-07-10,0.0,,0.0
360,2016-07-11,0.0,,0.0
360,2016-07-12,140.36183333333335,,140.36183333333335
360,2016-07-13,125.10075,,125.10075
360,2016-07-14,104.48704166666668,,104.48704166666668
360,2016-07-15,194.9713333333333,,194.9713333333333
360,2016-07-16,195.79116666666664,,195.79116666666664
360,2016-07-17,219.38858333333337,,219.38858333333337
360,2016-07-18,176.65504166666665,,176.65504166666665
360,2016-07-19,225.325875,,225.325875
360,2016-07-20,249.3835,,249.3835
360,2016-07-21,243.00391666666667,,243.00391666666667
360,2016-07-22,197.17508333333333,,197.17508333333333
360,2016-07-23,246.62675,,246.62675
360,2016-07-24,216.47491666666667,,216.47491666666667
360,2016-07-25,157.604875,,157.604875
360,2016-07-26,232.73279166666666,,232.73279166666666
360,2016-07-27,241.79195833333333,,241.79195833333333
360,2016-07-28,181.81354166666668,,181.81354166666668
360,2016-07-29,193.6403333333333,,193.6403333333333
360,2016-07-30,132.717125,,132.717125
360,2016-07-31,61.188250000000004,,61.188250000000004
360,2016-08-01,57.45641666666668,,57.45641666666668
360,2016-08-02,163.19862500000002,,163.19862500000002
360,2016-08-03,220.79499999999996,,220.79499999999996
360,2016-08-04,236.652375,,236.652375
360,2016-08-05,210.11725000000004,,210.11725000000004
360,2016-08-06,162.18883333333335,,162.18883333333335
360,2016-08-07,235.20962500000005,,235.20962500000005
360,2016-08-08,223.09762500000002,,223.09762500000002
360,2016-08-09,227.58016666666666,,227.58016666666666
360,2016-08-10,95.95383333333332,,95.95383333333332
360,2016-08-11,196.36075000000002,,196.36075000000002
360,2016-08-12,193.75537499999996,,193.75537499999996
360,2016-08-13,164.9681666666667,,164.9681666666667
360,2016-08-14,194.6250416666667,,194.6250416666667
360,2016-08-15,215.944625,,215.944625
360,2016-08-16,128.37437500000001,,128.37437500000001
360,2016-08-17,196.65954166666666,,196.65954166666666
360,2016-08-18,205.06975,,205.06975
360,2016-08-19,189.13150000000005,,189.13150000000005
360,2016-08-20,222.38020833333334,,222.38020833333334
360,2016-08-21,131.49220833333334,,131.49220833333334
360,2016-08-22,218.8444166666667,,218.8444166666667
360,2016-08-23,221.196625,,221.196625
360,2016-08-24,224.86079166666664,,224.86079166666664
360,2016-08-25,158.05470833333334,,158.05470833333334
360,2016-08-26,163.87370833333333,,163.87370833333333
360,2016-08-27,214.91670833333333,,214.91670833333333
360,2016-08-28,217.2942916666666,,217.2942916666666
360,2016-08-29,213.668625,,213.668625
360,2016-08-30,203.25004166666668,,203.25004166666668
360,2016-08-31,98.02741666666667,,98.02741666666667
360,2016-09-01,121.39458333333334,,121.39458333333334
360,2016-09-02,180.974125,,180.974125
360,2016-09-03,170.05087500000002,,170.05087500000002
360,2016-09-04,213.05733333333333,,213.05733333333333
360,2016-09-05,179.92070833333335,,179.92070833333335
360,2016-09-06,156.806,,156.806
360,2016-09-07,161.81904166666666,,161.81904166666666
360,2016-09-08,180.74616666666668,,180.74616666666668
360,2016-09-09,110.28912500000001,,110.28912500000001
360,2016-09-10,148.264375,,148.264375
360,2016-09-11,167.38945833333335,,167.38945833333335
360,2016-09-12,211.29304166666668,,211.29304166666668
360,2016-09-13,161.18495833333336,,161.18495833333336
360,2016-09-14,147.50658333333334,,147.50658333333334
360,2016-09-15,211.5704166666667,,211.5704166666667
360,2016-09-16,169.1797916666667,,169.1797916666667
360,2016-09-17,152.73837500000002,,152.73837500000002
360,2016-09-18,81.92329166666667,,81.92329166666667
360,2016-09-19,74.13033333333334,,74.13033333333334
360,2016-09-20,132.06387500000002,,132.06387500000002
360,2016-09-21,178.86070833333335,,178.86070833333335
360,2016-09-22,187.7435416666667,,187.7435416666667
360,2016-09-23,123.48308333333334,,123.48308333333334
360,2016-09-24,179.97920833333333,,179.97920833333333
360,2016-09-25,195.95450000000002,,195.95450000000002
360,2016-09-26,160.42070833333335,,160.42070833333335
360,2016-09-27,151.263125,,151.263125
360,2016-09-28,94.55216666666668,,94.55216666666668
360,2016-09-29,62.031291666666654,,62.031291666666654
360,2016-09-30,41.888124999999995,,41.888124999999995
360,2016-10-01,43.39329166666667,,43.39329166666667
360,2016-10-02,46.50791666666667,,46.50791666666667
360,2016-10-03,122.27741666666668,,122.27741666666668
360,2016-10-04,85.088625,,85.088625
360,2016-10-05,176.865875,,176.865875
360,2016-10-06,171.80208333333334,,171.80208333333334
360,2016-10-07,168.389375,,168.389375
360,2016-10-08,73.24354166666666,,73.24354166666666
360,2016-10-09,56.79175000000001,,56.79175000000001
360,2016-10-10,177.545625,,177.545625
360,2016-10-11,168.70191666666668,,168.70191666666668
360,2016-10-12,121.01570833333334,,121.01570833333334
360,2016-10-13,40.34125,,40.34125
360,2016-10-14,165.3959166666667,,165.3959166666667
360,2016-10-15,161.74358333333333,,161.74358333333333
360,2016-10-16,117.26179166666667,,117.26179166666667
360,2016-10-17,91.01829166666668,,91.01829166666668
360,2016-10-18,141.00395833333334,,141.00395833333334
360,2016-10-19,131.39716666666666,,131.39716666666666
360,2016-10-20,64.6185,,64.6185
360,2016-10-21,81.50145833333333,,81.50145833333333
360,2016-10-22,33.08079166666666,,33.08079166666666
360,2016-10-23,120.80345833333335,,120.80345833333335
360,2016-10-24,97.03654166666666,,97.03654166666666
360,2016-10-25,66.45583333333333,,66.45583333333333
360,2016-10-26,127.12762500000001,,127.12762500000001
360,2016-10-27,7.145874999999999,,7.145874999999999
360,2016-10-28,73.54562500000002,,73.54562500000002
360,2016-10-29,98.87770833333333,,98.87770833333333
360,2016-10-30,56.03258333333334,,56.03258333333334
360,2016-10-31,140.10683333333336,,140.10683333333336
360,2016-11-01,127.74620833333334,,127.74620833333334
360,2016-11-02,112.01962500000002,,112.01962500000002
360,2016-11-03,48.77225000000001,,48.77225000000001
360,2016-11-04,133.76304166666668,,133.76304166666668
360,2016-11-05,73.46500000000002,,73.46500000000002
360,2016-11-06,107.13154166666668,,107.13154166666668
360,2016-11-07,127.231875,,127.231875
360,2016-11-08,121.60945833333334,,121.60945833333334
360,2016-11-09,21.282625,,21.282625
360,2016-11-10,120.6355,,120.6355
360,2016-11-11,107.51308333333334,,107.51308333333334
360,2016-11-12,122.86466666666668,,122.86466666666668
360,2016-11-13,119.36595833333332,,119.36595833333332
360,2016-11-14,114.731875,,114.731875
360,2016-11-15,14.582083333333332,,14.582083333333332
360,2016-11-16,107.45445833333332,,107.45445833333332
360,2016-11-17,97.39720833333332,,97.39720833333332
360,2016-11-18,107.53129166666668,,107.53129166666668
360,2016-11-19,104.19937500000002,,104.19937500000002
360,2016-11-20,14.509208333333333,,14.509208333333333
360,2016-11-21,4.240958333333333,,4.240958333333333
360,2016-11-22,57.67850000000001,,57.67850000000001
360,2016-11-23,109.79433333333334,,109.79433333333334
360,2016-11-24,19.31775,,19.31775
360,2016-11-25,27.42191666666667,,27.42191666666667
360,2016-11-26,72.90108333333333,,72.90108333333333
360,2016-11-27,78.52083333333333,,78.52083333333333
360,2016-11-28,92.27091666666666,,92.27091666666666
360,2016-11-29,3.849041666666666,,3.849041666666666
360,2016-11-30,12.462333333333333,,12.462333333333333
360,2016-12-01,51.257875000000006,,51.257875000000006
360,2016-12-02,82.57295833333335,,82.57295833333335
360,2016-12-03,79.38679166666667,,79.38679166666667
360,2016-12-04,90.29433333333333,,90.29433333333333
360,2016-12-05,23.951833333333337,,23.951833333333337
360,2016-12-06,46.40758333333334,,46.40758333333334
360,2016-12-07,15.429791666666667,,15.429791666666667
360,2016-12-08,57.312625,,57.312625
360,2016-12-09,70.06516666666668,,70.06516666666668
360,2016-12-10,48.172000000000004,,48.172000000000004
360,2016-12-11,38.49229166666667,,38.49229166666667
360,2016-12-12,5.260541666666667,,5.260541666666667
360,2016-12-13,34.78133333333333,,34.78133333333333
360,2016-12-14,85.34641666666668,,85.34641666666668
360,2016-12-15,52.59641666666666,,52.59641666666666
360,2016-12-16,75.914125,,75.914125
360,2016-12-17,0.17975,,0.17975
360,2016-12-18,2.336,,2.336
360,2016-12-19,44.12504166666667,,44.12504166666667
360,2016-12-20,66.112125,,66.112125
360,2016-12-21,38.26575,,38.26575
360,2016-12-22,59.89849999999999,,59.89849999999999
360,2016-12-23,79.27875,,79.27875
360,2016-12-24,28.294375,,28.294375
360,2016-12-25,91.8855,,91.8855
360,2016-12-26,16.851666666666667,,16.851666666666667
360,2016-12-27,78.19020833333333,,78.19020833333333
360,2016-12-28,52.60954166666667,,52.60954166666667
360,2016-12-29,0.005208333333333333,,0.005208333333333333
360,2016-12-30,29.45058333333333,,29.45058333333333
360,2016-12-31,31.898541666666663,,31.898541666666663
360,2017-01-01,95.11987500000002,,95.11987500000002
360,2017-01-02,18.518375,,18.518375
360,2017-01-03,10.864666666666666,,10.864666666666666
360,2017-01-04,27.823041666666665,,27.823041666666665
360,2017-01-05,63.97666666666667,,63.97666666666667
360,2017-01-06,78.87241666666667,,78.87241666666667
360,2017-01-07,11.664166666666667,,11.664166666666667
360,2017-01-08,63.66933333333335,,63.66933333333335
360,2017-01-09,63.260541666666676,,63.260541666666676
360,2017-01-10,60.528708333333334,,60.528708333333334
360,2017-01-11,69.02091666666668,,69.02091666666668
360,2017-01-12,20.033875,,20.033875
360,2017-01-13,103.66687500000002,,103.66687500000002
360,2017-01-14,43.54183333333334,,43.54183333333334
360,2017-01-15,94.169375,,94.169375
360,2017-01-16,104.35425,,104.35425
360,2017-01-17,9.458458333333333,,9.458458333333333
360,2017-01-18,22.60683333333333,,22.60683333333333
360,2017-01-19,72.17200000000001,,72.17200000000001
360,2017-01-20,27.072958333333332,,27.072958333333332
360,2017-01-21,78.71366666666667,,78.71366666666667
360,2017-01-22,30.46108333333333,,30.46108333333333
360,2017-01-23,14.854249999999999,,14.854249999999999
360,2017-01-24,2.3855,,2.3855
360,2017-01-25,43.708416666666665,,43.708416666666665
360,2017-01-26,65.075625,,65.075625
360,2017-01-27,40.130374999999994,,40.130374999999994
360,2017-01-28,28.820416666666663,,28.820416666666663
360,2017-01-29,77.106875,,77.106875
360,2017-01-30,113.61470833333334,,113.61470833333334
360,2017-01-31,11.674541666666665,,11.674541666666665
360,2017-02-01,27.640666666666664,,27.640666666666664
360,2017-02-02,117.13550000000002,,117.13550000000002
360,2017-02-03,96.36204166666668,,96.36204166666668
360,2017-02-04,143.419375,,143.419375
360,2017-02-05,57.94795833333333,,57.94795833333333
360,2017-02-06,122.26829166666668,,122.26829166666668
360,2017-02-07,13.479291666666667,,13.479291666666667
360,2017-02-08,103.16416666666667,,103.16416666666667
360,2017-02-09,0.0,,0.0
360,2017-02-10,8.66675,,8.66675
360,2017-02-11,15.59125,,15.59125
360,2017-02-12,0.0,,0.0
360,2017-02-13,5.919333333333333,,5.919333333333333
360,2017-02-14,24.99225,,24.99225
360,2017-02-15,15.059958333333332,,15.059958333333332
360,2017-02-16,23.075541666666666,,23.075541666666666
360,2017-02-17,48.994875,,48.994875
360,2017-02-18,72.42200000000001,,72.42200000000001
360,2017-02-19,109.60954166666666,,109.60954166666666
360,2017-02-20,171.29700000000003,,171.29700000000003
360,2017-02-21,125.54441666666668,,125.54441666666668
360,2017-02-22,61.40633333333333,,61.40633333333333
360,2017-02-23,157.24491666666668,,157.24491666666668
360,2017-02-24,147.95066666666668,,147.95066666666668
360,2017-02-25,108.22145833333333,,108.22145833333333
360,2017-02-26,86.45583333333333,,86.45583333333333
360,2017-02-27,139.82295833333333,,139.82295833333333
360,2017-02-28,153.9427916666667,,153.9427916666667
360,2017-03-01,26.549666666666667,,26.549666666666667
360,2017-03-02,168.97929166666668,,168.97929166666668
360,2017-03-03,154.35429166666668,,154.35429166666668
360,2017-03-04,125.35166666666669,,125.35166666666669
360,2017-03-05,199.78137500000003,,199.78137500000003
360,2017-03-06,166.00275000000002,,166.00275000000002
360,2017-03-07,32.24233333333333,,32.24233333333333
360,2017-03-08,172.51833333333335,,172.51833333333335
360,2017-03-09,165.836,,165.836
360,2017-03-10,8.221458333333333,,8.221458333333333
360,2017-03-11,25.56520833333333,,25.56520833333333
360,2017-03-12,36.23445833333333,,36.23445833333333
360,2017-03-13,70.31262500000001,,70.31262500000001
360,2017-03-14,0.0,,0.0
360,2017-03-15,7.1667499999999995,,7.1667499999999995
360,2017-03-16,27.994875000000004,,27.994875000000004
360,2017-03-17,31.515708333333333,,31.515708333333333
360,2017-03-18,8.604249999999999,,8.604249999999999
360,2017-03-19,41.737125,,41.737125
360,2017-03-20,52.635541666666676,,52.635541666666676
360,2017-03-21,99.85429166666667,,99.85429166666667
360,2017-03-22,169.26579166666667,,169.26579166666667
360,2017-03-23,183.96633333333338,,183.96633333333338
360,2017-03-24,72.10683333333333,,72.10683333333333
360,2017-03-25,65.18762500000001,,65.18762500000001
360,2017-03-26,43.057375,,43.057375
360,2017-03-27,61.695375000000006,,61.695375000000006
360,2017-03-28,24.510583333333333,,24.510583333333333
360,2017-03-29,221.27358333333333,,221.27358333333333
360,2017-03-30,166.5912916666667,,166.5912916666667
360,2017-03-31,19.203208333333333,,19.203208333333333
360,2017-04-01,98.54175,,98.54175
360,2017-04-02,216.81008333333332,,216.81008333333332
360,2017-04-03,160.17725000000002,,160.17725000000002
360,2017-04-04,34.72925,,34.72925
360,2017-04-05,165.28916666666666,,165.28916666666666
360,2017-04-06,15.677166666666666,,15.677166666666666
360,2017-04-07,100.55216666666668,,100.55216666666668
360,2017-04-08,221.38812500000003,,221.38812500000003
360,2017-04-09,235.30741666666668,,235.30741666666668
360,2017-04-10,208.77616666666668,,208.77616666666668
360,2017-04-11,212.9922916666667,,212.9922916666667
360,2017-04-12,119.24237500000002,,119.24237500000002
360,2017-04-13,203.10429166666668,,203.10429166666668
360,2017-04-14,235.49220833333334,,235.49220833333334
360,2017-04-15,171.41158333333337,,171.41158333333337
360,2017-04-16,151.40116666666668,,151.40116666666668
360,2017-04-17,190.08866666666665,,190.08866666666665
360,2017-04-18,245.84641666666667,,245.84641666666667
360,2017-04-19,135.30475,,135.30475
360,2017-04-20,146.77095833333334,,146.77095833333334
360,2017-04-21,48.86733333333334,,48.86733333333334
360,2017-04-22,69.2215,,69.2215
360,2017-04-23,250.2084583333333,,250.2084583333333
360,2017-04-24,135.00016666666667,,135.00016666666667
360,2017-04-25,43.79966666666667,,43.79966666666667
360,2017-04-26,79.21366666666667,,79.21366666666667
360,2017-04-27,77.888125,,77.888125
360,2017-04-28,226.588625,,226.588625
360,2017-04-29,161.40387500000003,,161.40387500000003
360,2017-04-30,82.65370833333334,,82.65370833333334
360,2017-05-01,92.54175,,92.54175
360,2017-05-02,146.39083333333335,,146.39083333333335
360,2017-05-03,189.924625,,189.924625
360,2017-05-04,209.95325000000003,,209.95325000000003
360,2017-05-05,28.88808333333333,,28.88808333333333
360,2017-05-06,86.54958333333336,,86.54958333333336
360,2017-05-07,120.16162500000002,,120.16162500000002
360,2017-05-08,137.25795833333336,,137.25795833333336
360,2017-05-09,178.67979166666666,,178.67979166666666
360,2017-05-10,184.20583333333335,,184.20583333333335
360,2017-05-11,218.04441666666665,,218.04441666666665
360,2017-05-12,228.25791666666666,,228.25791666666666
360,2017-05-13,46.04429166666667,,46.04429166666667
360,2017-05-14,185.5835,,185.5835
360,2017-05-15,208.807375,,208.807375
360,2017-05-16,220.77358333333333,,220.77358333333333
360,2017-05-17,245.4427916666667,,245.4427916666667
360,2017-05-18,223.2422916666667,,223.2422916666667
360,2017-05-19,232.22675,,232.22675
360,2017-05-20,154.44283333333334,,154.44283333333334
360,2017-05-21,242.36475000000004,,242.36475000000004
360,2017-05-22,37.268375,,37.268375
360,2017-05-23,138.601625,,138.601625
360,2017-05-24,166.22933333333336,,166.22933333333336
360,2017-05-25,35.53916666666667,,35.53916666666667
360,2017-05-26,170.18504166666668,,170.18504166666668
360,2017-05-27,131.36470833333334,,131.36470833333334
360,2017-05-28,140.8985,,140.8985
360,2017-05-29,51.16683333333333,,51.16683333333333
360,2017-05-30,44.43245833333334,,44.43245833333334
360,2017-05-31,160.6929166666667,,160.6929166666667
360,2017-06-01,240.86208333333335,,240.86208333333335
360,2017-06-02,239.32308333333336,,239.32308333333336
360,2017-06-03,209.94804166666665,,209.94804166666665
360,2017-06-04,91.388125,,91.388125
360,2017-06-05,83.46366666666667,,83.46366666666667
360,2017-06-06,75.47141666666667,,75.47141666666667
360,2017-06-07,211.843875,,211.843875
360,2017-06-08,212.5365416666667,,212.5365416666667
360,2017-06-09,207.25270833333335,,207.25270833333335
360,2017-06-10,184.3256666666667,,184.3256666666667
360,2017-06-11,246.91937500000003,,246.91937500000003
360,2017-06-12,248.09645833333335,,248.09645833333335
360,2017-06-13,222.65895833333335,,222.65895833333335
360,2017-06-14,250.5027916666667,,250.5027916666667
360,2017-06-15,154.3179166666667,,154.3179166666667
360,2017-06-16,62.606916666666656,,62.606916666666656
360,2017-06-17,86.65116666666667,,86.65116666666667
360,2017-06-18,165.09912500000002,,165.09912500000002
360,2017-06-19,91.43500000000002,,91.43500000000002
360,2017-06-20,241.44029166666667,,241.44029166666667
360,2017-06-21,183.2084166666667,,183.2084166666667
360,2017-06-22,235.94804166666668,,235.94804166666668
360,2017-06-23,141.83345833333334,,141.83345833333334
360,2017-06-24,242.56262500000003,,242.56262500000003
360,2017-06-25,219.932375,,219.932375
360,2017-06-26,231.54445833333332,,231.54445833333332
360,2017-06-27,181.00520833333334,,181.00520833333334
360,2017-06-28,232.97925,,232.97925
360,2017-06-29,208.36725,,208.36725
360,2017-06-30,182.33333333333334,,182.33333333333334
360,2017-07-01,168.39583333333334,,168.39583333333334
360,2017-07-02,229.71354166666666,,229.71354166666666
360,2017-07-03,228.1875,,228.1875
360,2017-07-04,227.84895833333334,,227.84895833333334
360,2017-07-05,228.765625,,228.765625
360,2017-07-06,152.88541666666666,,152.88541666666666
360,2017-07-07,125.296875,,125.296875
360,2017-07-08,195.75520833333334,,195.75520833333334
360,2017-07-09,246.05208333333334,,246.05208333333334
360,2017-07-10,212.01041666666666,,212.01041666666666
360,2017-07-11,138.29166666666666,,138.29166666666666
360,2017-07-12,168.19791666666666,,168.19791666666666
360,2017-07-13,138.68229166666666,,138.68229166666666
360,2017-07-14,40.4375,,40.4375
360,2017-07-15,159.66145833333334,,159.66145833333334
360,2017-07-16,140.27083333333334,,140.27083333333334
360,2017-07-17,122.546875,,122.546875
360,2017-07-18,125.46875,,125.46875
360,2017-07-19,160.375,,160.375
360,2017-07-20,128.890625,,128.890625
360,2017-07-21,213.55729166666666,,213.55729166666666
360,2017-07-22,173.140625,,173.140625
360,2017-07-23,126.75,,126.75
360,2017-07-24,101.68229166666667,,101.68229166666667
360,2017-07-25,76.89583333333333,,76.89583333333333
360,2017-07-26,191.1875,,191.1875
360,2017-07-27,100.66666666666667,,100.66666666666667
360,2017-07-28,154.96354166666666,,154.96354166666666
360,2017-07-29,215.8125,,215.8125
360,2017-07-30,249.73958333333334,,249.73958333333334
360,2017-07-31,224.63020833333334,,224.63020833333334
360,2017-08-01,232.3125,,232.3125
360,2017-08-02,154.11458333333334,,154.11458333333334
360,2017-08-03,169.47395833333334,,169.47395833333334
360,2017-08-04,106.13020833333333,,106.13020833333333
360,2017-08-05,108.88541666666667,,108.88541666666667
360,2017-08-06,135.78125,,135.78125
360,2017-08-07,19.0625,,19.0625
360,2017-08-08,104.71875,,104.71875
360,2017-08-09,137.94270833333334,,137.94270833333334
360,2017-08-10,133.86979166666666,,133.86979166666666
360,2017-08-11,82.703125,,82.703125
360,2017-08-12,112.40104166666667,,112.40104166666667
360,2017-08-13,133.55729166666666,,133.55729166666666
360,2017-08-14,91.16145833333333,,91.16145833333333
360,2017-08-15,45.5625,,45.5625
360,2017-08-16,133.125,,133.125
360,2017-08-17,138.46354166666666,,138.46354166666666
360,2017-08-18,40.817708333333336,,40.817708333333336
360,2017-08-19,137.52083333333334,,137.52083333333334
360,2017-08-20,131.28645833333334,,131.28645833333334
360,2017-08-21,121.390625,,121.390625
360,2017-08-22,136.40625,,136.40625
360,2017-08-23,142.421875,,142.421875
360,2017-08-24,143.34375,,143.34375
360,2017-08-25,114.83854166666667,,114.83854166666667
360,2017-08-26,137.921875,,137.921875
360,2017-08-27,143.09375,,143.09375
360,2017-08-28,149.83333333333334,,149.83333333333334
360,2017-08-29,41.619791666666664,,41.619791666666664
360,2017-08-30,178.984375,,178.984375
360,2017-08-31,118.10416666666667,,118.10416666666667
360,2017-09-01,224.57291666666666,,224.57291666666666
360,2017-09-02,142.92708333333334,,142.92708333333334
360,2017-09-03,64.47395833333333,,64.47395833333333
360,2017-09-04,161.41666666666666,,161.41666666666666
360,2017-09-05,85.80208333333333,,85.80208333333333
360,2017-09-06,12.697916666666666,,12.697916666666666
360,2017-09-07,92.57291666666667,,92.57291666666667
360,2017-09-08,113.52604166666667,,113.52604166666667
360,2017-09-09,96.3125,,96.3125
360,2017-09-10,129.92708333333334,,129.92708333333334
360,2017-09-11,130.65104166666666,,130.65104166666666
360,2017-09-12,116.96875,,116.96875
360,2017-09-13,106.51041666666667,,106.51041666666667
360,2017-09-14,68.38541666666667,,68.38541666666667
360,2017-09-15,108.28645833333333,,108.28645833333333
360,2017-09-16,130.765625,,130.765625
360,2017-09-17,104.41666666666667,,104.41666666666667
360,2017-09-18,92.02604166666667,,92.02604166666667
360,2017-09-19,86.96354166666667,,86.96354166666667
360,2017-09-20,77.21875,,77.21875
360,2017-09-21,78.890625,,78.890625
360,2017-09-22,124.63541666666667,,124.63541666666667
360,2017-09-23,120.08854166666667,,120.08854166666667
360,2017-09-24,115.546875,,115.546875
360,2017-09-25,40.010416666666664,,40.010416666666664
360,2017-09-26,163.78125,,163.78125
360,2017-09-27,171.67708333333334,,171.67708333333334
360,2017-09-28,186.359375,,186.359375
360,2017-09-29,131.39583333333334,,131.39583333333334
360,2017-09-30,86.98958333333333,,86.98958333333333
360,2017-10-01,182.875,,182.875
360,2017-10-02,181.74479166666666,,181.74479166666666
360,2017-10-03,164.3125,,164.3125
360,2017-10-04,172.33333333333334,,172.33333333333334
360,2017-10-05,109.359375,,109.359375
360,2017-10-06,143.359375,,143.359375
360,2017-10-07,110.95833333333333,,110.95833333333333
360,2017-10-08,64.01041666666667,,64.01041666666667
360,2017-10-09,32.135416666666664,,32.135416666666664
360,2017-10-10,137.75520833333334,,137.75520833333334
360,2017-10-11,80.03125,,80.03125
360,2017-10-12,104.38541666666667,,104.38541666666667
360,2017-10-13,118.93229166666667,,118.93229166666667
360,2017-10-14,71.53645833333333,,71.53645833333333
360,2017-10-15,42.223958333333336,,42.223958333333336
360,2017-10-16,80.796875,,80.796875
360,2017-10-17,159.40104166666666,,159.40104166666666
360,2017-10-18,149.53645833333334,,149.53645833333334
360,2017-10-19,151.31770833333334,,151.31770833333334
360,2017-10-20,149.17708333333334,,149.17708333333334
360,2017-10-21,138.109375,,138.109375
360,2017-10-22,136.25,,136.25
360,2017-10-23,50.59375,,50.59375
360,2017-10-24,38.677083333333336,,38.677083333333336
360,2017-10-25,94.484375,,94.484375
360,2017-10-26,54.661458333333336,,54.661458333333336
360,2017-10-27,137.38020833333334,,137.38020833333334